{"data":{"norad_id":40267,"epoch":"2026-05-25T04:24:35.930016Z","epoch_age_seconds":55791,"freshness":"FRESH","line1":"1 40267U 14060A   26145.18374919 -.00000278  00000+0  00000+0 0  9996","line2":"2 40267   0.0447  95.0631 0001002 351.7560   2.7547  1.00270592 42535","mean_motion":1.00270592,"eccentricity":0.0001002,"inclination_deg":0.0447,"raan_deg":95.0631,"arg_perigee_deg":351.756,"mean_anomaly_deg":2.7547,"bstar":0,"rev_number":4253,"period_min":1436.113990431,"perigee_km":35782.70446606,"apogee_km":35791.154345368,"semimajor_km":42165.066405714,"source":"CELESTRAK","updated_at":"2026-05-25T13:38:13.952051Z"}}